Regional Weather Roundup
Issued by NWS

Home | Current Version | Previous Version | Graphics & Text | Print | Product List | Glossary On
Versions: 1 2 3 4 5 6 7 8 9 10 11 12 13 14 15 16 17 18 19 20 21 22 23 24 25 26 27 28 29 30 31 32 33 34 35 36 37 38 39 40 41 42 43 44 45 46 47 48 49 50
000
ASUS45 KTFX 211304
RWRMT
MONTANA HOURLY WEATHER ROUNDUP
NATIONAL WEATHER SERVICE GREAT FALLS MT
704 AM MDT SUN SEP 21 2014

NOTE: "FAIR" INDICATES FEW OR NO CLOUDS BELOW 12000 FEET WITH NO
SIGNIFICANT WEATHER AND/OR OBSTRUCTIONS TO VISIBILITY.

* THESE STATIONS ARE NOT UNDER NWS QUALITY CONTROL. THEY DO NOT
   REPORT WEATHER SUCH AS PRECIPITATION OR FOG.

MTZ001>007-043-211400-
WEST OF THE DIVIDE
CITY           SKY/WX    TMP DP  RH WIND       PRES   REMARKS
KALISPELL      CLEAR     48  43  83 N7        30.16S
MISSOULA       CLEAR     46  39  77 CALM      30.18F
BUTTE          CLEAR     39  34  82 SE3       30.29S
MULLAN PASS    CLEAR     54  36  51 SE15G25   30.22F
* ESSEX        N/A       46  39  77 SE13G19    N/A
* LINCOLN      N/A       35  33  92 N1         N/A
* LOOKOUT PASS N/A       45  38  77 S2         N/A
* POLSON       N/A       51  41  69 N/A        N/A
* RONAN APT    CLEAR     41  37  86 N/A        N/A
* SEELEY LAKE  N/A       33  30  89 NE1        N/A
* THOMP F APT  CLEAR     53  34  49 N4         N/A
$$

MTZ008-052>055-211400-
SOUTHWEST MONTANA
CITY           SKY/WX    TMP DP  RH WIND       PRES   REMARKS
BOZEMAN        CLEAR     37  36  96 SE6       30.27F WCI  32
DILLON         CLEAR     43  36  76 S6        30.27S
W YELLOWSTONE  PTCLDY    30  30 100 CALM      30.36S
* THREE FORKS  CLEAR     36  19  50 N/A        N/A
* BOULDER HILL N/A       46  36  68 N/A        N/A
* RAYNOLDS PAS N/A       41  26  55 N/A        N/A
* WHITEHALL    N/A       44  38  80 N4         N/A
* WISE RIVER   N/A       36  30  79 SE3        N/A
$$

MTZ009>010-012-014-046-048-049-054-211400-
EAST SLOPES AND CENTRAL MONTANA
CITY           SKY/WX    TMP DP  RH WIND       PRES   REMARKS
CUT BANK       CLEAR     37  36  96 N3        30.25S
GREAT FALLS    CLEAR     43  39  86 SW5       30.24F
HELENA         CLEAR     45  39  80 CALM      30.25F
MALMSTROM AFB  CLEAR     39  39 100 S2        30.26S
* CONRAD       CLEAR     36  36 100 N/A        N/A
* EAST GLACIER N/A       45  39  80 NW6        N/A
* MONARCH      N/A       41  34  76 N/A        N/A
* PENDROY      N/A       46  41  83 SW4        N/A
* ROGERS PASS  N/A       47  39  74 NW3        N/A
* SAINT MARY   N/A       35  34  96 SE3        N/A
* SWEET GRASS  N/A       49  35  59 S13        N/A
$$

MTZ011-013-016-021-035-040-045-047-050-051-211400-
NORTH CENTRAL MONTANA
CITY           SKY/WX    TMP DP  RH WIND       PRES   REMARKS
HAVRE          CLEAR     37  36  96 NE3       30.24F
LEWISTOWN      CLEAR     46  39  77 S7        30.28F
* CHESTER      N/A       40  35  82 N2         N/A
* DENTON       N/A       51  41  69 S10        N/A
* GEYSER       N/A       39  38  96 S6         N/A   WCI  35
* JUDITH GAP   N/A       42  40  93 SE4        N/A
* LOMA         N/A       45  39  80 N/A        N/A
$$

MTZ017>020-022>027-061-062-211400-
NORTHEAST MONTANA
CITY           SKY/WX    TMP DP  RH WIND       PRES   REMARKS
GLASGOW        CLEAR     41  36  82 NE3       30.28R
JORDAN         CLEAR     37  36  96 CALM      30.29S
SIDNEY         CLEAR     36  34  92 S6        30.31R WCI  31
WOLF POINT     PTCLDY    37  36  96 SW3       30.30R
* BEAVER HILL  N/A       44  34  68 N/A        N/A
* CIRCLE       N/A       40  37  89 N/A        N/A
* LINDSAY DVD  N/A       48  32  54 W1         N/A
* SACO         N/A       37  33  85 N/A        N/A
$$

MTZ028>042-056>058-211400-
SOUTHCENTRAL AND SOUTHEAST MONTANA
CITY           SKY/WX    TMP DP  RH WIND       PRES   REMARKS
BAKER          PTCLDY    36  30  79 CALM      30.33R
BILLINGS       CLEAR     46  37  71 NW5       30.29R
LIVINGSTON     CLEAR     39  36  89 CALM      30.31R
MILES CITY     CLEAR     43  37  79 SE7       30.31R
* LAUREL APT   CLEAR     43  36  76 N/A        N/A
* ROUNDUP APT  CLEAR     43  37  79 N/A        N/A
* ALZADA       N/A       40  36  86 E4         N/A
* HYSHAM       N/A       53  35  51 NE4        N/A
* LAME DEER    N/A       53  35  51 SE6        N/A
* REED POINT   N/A       40  39  96 NW1        N/A
* ROSCOE HILL  N/A       50  34  54 N/A        N/A
$$

REGIONAL REPORTS...DAKOTAS
CITY           SKY/WX    TMP DP  RH WIND       PRES   REMARKS
WILLISTON      CLEAR     37  34  89 SW6       30.28R WCI  32
DICKINSON      CLEAR     43  36  76 W9        30.28R
BEACH          N/A       36  32  85 S3        30.31S
CROSBY         CLEAR     39  39 100 SW6       30.27R WCI  35
TIOGA          CLEAR     37  37 100 NW6       30.29R WCI  32
WATFORD CITY   CLEAR     37  34  89 SW3       30.27R
BISMARCK       CLEAR     46  43  89 W6        30.26R
GRAND FORKS    FAIR      50  46  86 NW8       30.14R
FARGO          CLEAR     52  48  86 NW8       30.14R
RAPID CITY     CLEAR     43  36  76 NW7       30.34R
$$

REGIONAL REPORTS...WYOMING/IDAHO/WASHINGTON
CITY           SKY/WX    TMP DP  RH WIND       PRES   REMARKS
GILLETTE       CLEAR     39  36  89 S3        30.35R
SHERIDAN       CLEAR     39  37  93 NW5       30.31R WCI  35
CODY           CLEAR    N/A N/A N/A N/A        N/A
YELLOWSTONE LA PTCLDY    34  32  92 CALM      30.43R
SALMON         PTCLDY    43  37  79 CALM      30.19R
MULLAN PASS    CLEAR     54  36  51 SE15G25   30.22S
SAND POINT     CLEAR     52  45  77 NE10      30.07S
SPOKANE        FAIR      57  45  64 NE7       30.02S

$$




USA.gov is the U.S. government's official web portal to all federal, state and local government web resources and services.